{"data":{"norad_id":57257,"intl_designator":"2023-094AR","name":"STARLINK-5503","alt_names":[],"object_type":"PAYLOAD","status":"ACTIVE","operator":null,"country":"US","launch_date":"2023-07-07","launch_site_code":"AFWTR","launch_vehicle":null,"mission":null,"orbit_class":"UNKNOWN","rcs_meters":null,"size_class":null,"mass_kg":null,"dimensions":null,"purposes":["comms"],"wikipedia_slug":null,"has_3d_model":false,"image_url":null,"decayed_at":null,"tle_current":{"epoch":"2026-09-20T13:31:57.394272Z","epoch_age_seconds":118807,"freshness":"FRESH","line1":"1 57257U 23094AR  26263.56385873 -.00000179  00000+0  30276-5 0  9998","line2":"2 57257  43.0034 359.3237 0001257 267.7097  92.3611 15.27576084177706","mean_motion":15.27576084,"eccentricity":0.0001257,"inclination_deg":43.0034,"raan_deg":359.3237,"arg_perigee_deg":267.7097,"mean_anomaly_deg":92.3611,"bstar":3.0276e-6,"rev_number":17770,"period_min":94.266990370085,"perigee_km":482.19836941125,"apogee_km":483.9232745437,"semimajor_km":6861.1978219775,"source":"CELESTRAK","updated_at":"2026-09-21T09:00:33.592685Z"}}}